Simultaneous Nadir Overpasses (SNOs) Predictions

Prediction of SNOs between AQUA and NPP Satellite Orbit:

Table of predicted SNOs for the next 14.0 days since TLE Epoch: 8/24/2024
Index Date (AQUA) Time (AQUA) Lat,Lon (AQUA) SZA (AQUA ) Date (NPP) Time (NPP) Lat,Lon (NPP) SZA (NPP ) Distance(km) Time Diff (sec)
1 08/25/2024 08:19:47 81.28, -19.28 77.30 08/25/2024 08:19:43 81.28, -19.11 77.28 3.00 4
2 08/27/2024 19:33:16 81.27, 172.28 78.13 08/27/2024 19:32:08 81.28, 172.47 78.15 3.29 68
3 08/27/2024 20:22:37 -81.28, -19.86 101.89 08/27/2024 20:22:52 -81.29, -19.71 101.92 2.60 15
4 08/30/2024 07:36:04 -81.28, 171.72 101.04 08/30/2024 07:35:17 -81.28, 171.81 101.02 1.62 47
5 08/30/2024 08:25:24 81.29, -20.28 78.93 08/30/2024 08:26:00 81.29, -20.30 78.91 0.57 36
6 09/01/2024 19:38:49 81.29, 171.29 79.80 09/01/2024 19:38:24 81.29, 171.48 79.79 3.20 25
7 09/01/2024 20:28:10 -81.30, -20.85 100.22 09/01/2024 20:29:09 -81.29, -21.03 100.23 3.20 59
8 09/04/2024 07:41:32 -81.29, 170.73 99.35 09/04/2024 07:41:32 -81.29, 170.68 99.34 0.91 0
9 09/06/2024 18:54:53 -81.28, 2.33 98.46 09/06/2024 18:53:56 -81.28, 2.31 98.42 0.37 57



Historial Predications of SNOs between AQUA and NPP
